Regional Weather Roundup
Issued by NWS

Home | Current Version | Previous Version | Graphics & Text | Print | Product List | Glossary On
Versions: 1 2 3 4 5 6 7 8 9 10 11 12 13 14 15 16 17 18 19 20 21 22 23 24 25 26 27 28 29 30 31 32 33 34 35 36 37 38 39 40 41 42 43 44 45 46 47 48 49 50
000
ASUS45 KBOU 201910
RWRCO

WEATHER ROUNDUP FOR COLORADO
NATIONAL WEATHER SERVICE DENVER/BOULDER CO
1200 PM MST SAT JAN 20 2018

NOTE: "FAIR" INDICATES FEW OR NO CLOUDS BELOW 12000 FEET WITH NO
SIGNIFICANT WEATHER AND/OR OBSTRUCTIONS TO VISIBILITY.

COZ001>005-013-030-031-202000-
...NORTHWEST COLORADO...

CITY           SKY/WX    TMP DP  RH WIND       PRES   REMARKS
CRAIG          CLOUDY    32  28  85 SW3       29.76F
HAYDEN         CLOUDY   N/A N/A N/A W5        29.77F
MEEKER         CLOUDY    40  33  76 SW7       29.75F
RABBIT EARS PA CLOUDY    30  25  80 S16G45    29.80F WCI  19
STEAMBOAT SPGS FAIR      36  28  74 CALM      29.74F
WALDEN         FAIR      41  23  48 SW14G25   29.77F
$$

COZ006>008-011-202000-
...WEST CENTRAL VALLEYS...

CITY           SKY/WX    TMP DP  RH WIND       PRES   REMARKS
GRAND JUNCTION CLOUDY    45  33  63 NW17      29.73F
MONTROSE       FAIR      55  22  27 S18G29    29.76F
EAGLE          FAIR      46  25  43 CALM      29.76F
RIFLE          LGT RAIN  36  33  89 NE5       29.76F
DELTA          FAIR      60  26  26 SW18G24   29.74F
NUCLA          PTSUNNY   52  21  30 SW25G35   29.80F
$$

COZ017>023-064>068-202000-
...SOUTHWEST COLORADO...

CITY           SKY/WX    TMP DP  RH WIND       PRES   REMARKS
DURANGO        CLOUDY    41  21  44 VRB6      29.91F
CORTEZ         PTSUNNY   49  19  30 S16G26    29.83F
PAGOSA SPRINGS CLOUDY    41  16  36 CALM      29.95F
TELLURIDE      FLURRIES  36  21  54 S16G26    29.89F
WOLF CREEK PAS CLOUDY    19  14  79 S9        30.06F WCI   9
$$

COZ009-010-012-014-032>034-037-058>063-202000-
...CENTRAL COLORADO...

CITY           SKY/WX    TMP DP  RH WIND       PRES   REMARKS
ASPEN          PTSUNNY   47  20  34 S15       29.77F
BUENA VISTA    CLOUDY    43  17  34 SE14G22   29.83F
COPPER MTN     NOT AVBL
BERTHOUD PASS  PTSUNNY   28  18  64 SW22G45   29.90F WCI  15
COTTONWOOD PAS   N/A     41  19  42 E13G22    29.87F
GUNNISON       FAIR      29  19  66 CALM      29.88F
KREMMLING      FAIR      45  21  39 CALM      29.78F
LEADVILLE      FAIR      34  18  52 S15       29.84F WCI  24
MONARCH PASS   CLOUDY    30  18  59 SW33G40   30.03F WCI  14
SALIDA         CLOUDY    50  19  28 S12G24    29.91F
SUNLIGHT       LGT SNOW  28  21  74 SW16G35   29.86F WCI  17
WILKERSON PASS FAIR      36  14  41 SW13G23   29.92F
$$

COZ069>075-202000-
...SAN LUIS VALLEY/SANGRE DE CRISTO MOUNTAINS...

CITY           SKY/WX    TMP DP  RH WIND       PRES   REMARKS
ALAMOSA        FAIR      52  16  24 SW25G33   29.88F
DEL NORTE      FAIR      47  18  31 W31G39    29.89F
LA VETA PASS   FAIR      39  14  35 S32G51      N/A
SAGUACHE       FAIR      43  18  36 NW3       29.90F
$$

COZ035-036-038>040-202000-
...NORTHERN COLORADO FRONT RANGE...

CITY           SKY/WX    TMP DP  RH WIND       PRES   REMARKS
DENVER INTL AP PTSUNNY   42  22  44 NE12      29.76F
DMNS CITY PARK NOT AVBL
AURORA         PTSUNNY   44  22  41 NW9       29.76F
FRONT RANGE AP PTSUNNY   43  25  49 NE8       29.76F
ERIE MUNI ARPT FAIR      45  23  42 NW8       29.84F
BOULDER MUN AP FAIR      45  23  42 NE6       29.79F
CENTENNIAL     PTSUNNY   48  21  34 N13       29.76R
BROOMFIELD     PTSUNNY   45  21  39 N14       29.78F
FORT COLLINS   FAIR      45  27  49 CALM      29.80F
LONGMONT       FAIR      50  23  35 N5        29.81F
$$

COZ041-046-047-076>085-087-088-202000-
...PIKES PEAK/PALMER DIVIDE AND SOUTHERN FOOTHILLS...

CITY           SKY/WX    TMP DP  RH WIND       PRES   REMARKS
COLO. SPRINGS  PTSUNNY   59  20  22 SW21      29.76F
A. F. ACADEMY  FAIR      55  16  21 SW3       29.76F
SCHRIEVER AFB  FAIR      58  16  19 SW13      29.77F
CHEYENNE MTN   FAIR      54  17  23 S21G40    29.70F
ELLICOTT         N/A    N/A N/A N/A SW14      29.75F
FALCON         FAIR      56  15  19 SW18G24   29.79F
FORT CARSON    FAIR      59  18  20 SW10      29.73F
LIMON          FAIR      63  17  17 W7        29.73F
MONUMENT HILL  FAIR      52  18  25 SW17G23   29.79F
CANON CITY     FAIR      57  23  26 NE3       29.74F
WALSENBURG     FAIR      63  16  16 SW22G40   29.78F
TRINIDAD       FAIR      67  17  14 SW7G18    29.76F
$$

COZ042>045-048>051-090-091-202000-
...NORTHEAST COLORADO...

CITY           SKY/WX    TMP DP  RH WIND       PRES   REMARKS
GREELEY ARPT   FAIR      43  29  57 NE10      29.80F
AKRON          FAIR      44  29  55 NE13      29.76F
BURLINGTON     FAIR      49  28  44 N7        29.74F
WRAY           FAIR      46  30  53 NE10      29.78F
YUMA           FAIR      43  28  56 N9G16     29.77F
STERLING       FAIR      43  30  61 NE9G18    29.78F
HOLYOKE        FAIR      48  30  49 NE16      29.79F
FORT MORGAN    FAIR      44  25  48 NE17      29.77F
$$

COZ086-089-092>099-202000-
...SOUTHEAST COLORADO...

CITY           SKY/WX    TMP DP  RH WIND       PRES   REMARKS
PUEBLO         FAIR      65  20  17 VRB3      29.71F
LA JUNTA       FAIR      72  24  16 W17G25    29.70F
LAMAR          FAIR      69  22  16 NW8       29.69F
SPRINGFIELD      N/A     74  18  12 SW12      29.71F
$$



USA.gov is the U.S. government's official web portal to all federal, state and local government web resources and services.